Skip Page Navigation
NASA JPL Caltech
NASA Logo - Jet Propulsion Laboratory + View the NASA Portal
+ Center for Near-Earth Object Studies
JPL Home Earth Solar System Stars & Galaxies Technology
JPL Solar System Dynamics
BODIES ORBITS EPHEMERIDES TOOLS PHYSICAL DATA DISCOVERY FAQ SITE MAP
JPL Small-Body Database Browser
Search: [ help ]  
351425 (2005 GT65)
Classification: Main-belt Asteroid          SPK-ID: 2351425
Ephemeris | Orbit Diagram | Orbital Elements | Mission Design | Physical Parameters | Discovery Circumstances | Close-Approach Data ]

[ show orbit diagram ]
Orbital Elements at Epoch 2459396.5 (2021-Jul-01.0) TDB
Reference: JPL 20 (heliocentric ecliptic J2000)
 Element Value Uncertainty (1-sigma)   Units 
e .2417270521414437 6.3964e-08  
a 2.706993161905513 3.3645e-08 au
q 2.052639684711048 1.5572e-07 au
i 11.51018108707126 5.2069e-06 deg
node 108.8315995487611 2.8478e-05 deg
peri 161.817320336167 3.0598e-05 deg
M 177.2981396211207 1.1682e-05 deg
tp 2458595.318628629680
(2019-Apr-21.81862863)
4.7541e-05 TDB
period 1626.781275368534
4.45
3.0328e-05
8.303e-08
d
yr
n .2212958837496116 4.1257e-09 deg/d
Q 3.361346639099978 4.1778e-08 au
  Orbit Determination Parameters
   # obs. used (total)      284  
   data-arc span      5783 days (15.83 yr)  
   first obs. used      2005-03-10  
   last obs. used      2021-01-08  
   planetary ephem.      DE441  
   SB-pert. ephem.      SB441-N16  
   condition code      0  
   norm. resid. RMS      .54046  
   source      ORB  
   producer      Otto Matic  
   solution date      2021-Apr-14 08:58:14  

Additional Information
 Earth MOID = 1.03947 au 
 Jupiter MOID = 1.78764 au 
 T_jup = 3.294 
[ show covariance matrix ]

Ephemeris | Orbit Diagram | Orbital Elements | Mission Design | Physical Parameters | Discovery Circumstances | Close-Approach Data ]

Physical Parameter Table
Parameter Symbol Value Units Sigma Reference Notes
absolute magnitude H 16.37   n/a MPCxxxxx  

351425 (2005 GT65)          Discovered 2005-Apr-02 by CSS at Catalina
Reference: 20130127/Numbers.arcLast Updated: 2013-01-31

[ show close-approach data ]
Ephemeris | Orbit Diagram | Orbital Elements | Mission Design | Physical Parameters | Discovery Circumstances | Close-Approach Data ]
ABOUT SSD CREDITS/AWARDS PRIVACY/COPYRIGHT GLOSSARY LINKS
FirstGov 2021-Jul-26 03:34 UT
(server date/time)  
NASA Home Page
Site Manager:   Ryan S. Park
Webmaster  Alan B. Chamberlin